sat.trackr.live / text

‹ back to catalog

UNKNOWN

NORAD 82741

UNKNOWN UNKNOWN UNKNOWN

§ Identity

Operator
Country
Launch date
Launch site
Launch vehicle
Mass (kg)
RCS (m²)

External: N2YO · Heavens-Above

§ Orbital elements

Epoch: 2026-09-18T15:08:49.393536Z

Period
105.32 min
Inclination
102.8455°
Eccentricity
0.0193976
Mean motion
13.67295960 rev/d
Perigee alt
866.0 km
Apogee alt
1,152.6 km
Semi-major
7,387.4 km
B*
2.2315e-3
RAAN
32.4814°
Arg perigee
358.4821°
Mean anomaly
1.5701°
Rev number
63,531

§ Raw data

UNKNOWN1 82741U          26261.63112724  .00002066  00000+0  22315-2 0  99932 82741 102.8455  32.4814 0193976 358.4821   1.5701 13.67295960635317

JSON: /api/v1/satellites/82741 · /tle

For live sub-satellite position, see the globe view (requires WebGL).

§ Visibility from observer

Set your observer location to see the next 7 days of passes ≥ 10°. The values pass through the URL so the page stays shareable.

No JS? Fill the form by hand. The geolocation button needs JavaScript.